This is the latest recevied weather packets stored in our database for station/object KE8URB. If no packets are shown the sender has not sent any weather packets the latest 10 day(s).
| Time | Temp. | Humidity | Pressure | Rain* | Wind** | Luminosity | Snow |
|---|---|---|---|---|---|---|---|
| 1787413348 | 25.56° C | 79% | 1013.8 hPa | 0 mm | - | 135 W/m² | - |
| 1787413044 | 25.56° C | 81% | 1013.9 hPa | 0 mm | - | 111 W/m² | - |
| 1787412740 | 25° C | 81% | 1014 hPa | 0 mm | - | 99 W/m² | - |
| 1787412439 | 25° C | 83% | 1014.1 hPa | 0 mm | - | 86 W/m² | - |
| 1787412135 | 25° C | 81% | 1014.2 hPa | 0 mm | - | 89 W/m² | - |
| 1787411833 | 25° C | 83% | 1014.1 hPa | 0 mm | - | 131 W/m² | - |
| 1787411528 | 25° C | 83% | 1014.4 hPa | 0 mm | - | 79 W/m² | - |
| 1787411223 | 25° C | 81% | 1014.5 hPa | 0 mm | - | 105 W/m² | - |
| 1787410919 | 25° C | 79% | 1014.2 hPa | 0 mm | - | 118 W/m² | - |
| 1787410614 | 24.44° C | 81% | 1014.5 hPa | 0 mm | - | 115 W/m² | - |
| 1787410309 | 24.44° C | 80% | 1014.7 hPa | 0 mm | - | 112 W/m² | - |
| 1787410005 | 24.44° C | 80% | 1014.6 hPa | 0 mm | - | 82 W/m² | - |
| 1787409701 | 24.44° C | 81% | 1014.8 hPa | 0 mm | - | 91 W/m² | - |
| 1787409397 | 23.89° C | 80% | 1014.6 hPa | 0 mm | - | 88 W/m² | - |
| 1787409093 | 23.89° C | 82% | 1014.8 hPa | 0 mm | - | 88 W/m² | - |
| 1787408788 | 23.89° C | 82% | 1014.8 hPa | 0 mm | - | 81 W/m² | - |
| 1787408483 | 23.33° C | 83% | 1015 hPa | 0 mm | - | 101 W/m² | - |
| 1787408179 | 23.33° C | 83% | 1015 hPa | 0 mm | - | 91 W/m² | - |
| 1787407874 | 23.33° C | 83% | 1014.9 hPa | 0 mm | - | 97 W/m² | - |
| 1787407569 | 23.89° C | 81% | 1015 hPa | 0 mm | - | 121 W/m² | - |
| 1787407264 | 23.33° C | 84% | 1014.9 hPa | 0 mm | - | 91 W/m² | - |
| 1787406960 | 23.33° C | 83% | 1015.1 hPa | 0 mm | - | 72 W/m² | - |
| 1787406656 | 23.33° C | 85% | 1014.8 hPa | 0 mm | - | 67 W/m² | - |
| 1787406351 | 23.33° C | 85% | 1014.8 hPa | 0 mm | - | 63 W/m² | - |
| 1787406047 | 22.78° C | 85% | 1014.7 hPa | 0 mm | - | 147 W/m² | - |
* Rain latest hour (hover to see other rain measurements)
** Current wind speed in m/s (hover to see current wind gust speed)